Aurora, CO

6:18 PM MDT on October 15, 2019 (GMT -0600)
Buckley Air Force Base

Weather History for KBKF - September, 2019

Change the Weather History Date:

Saturday, September 21, 2019

  Actual Average Record
Temperature  
Mean Temperature 64 °F -  
Max Temperature 80 °F 70 °F 88 °F (2017)
Min Temperature 49 °F 44 °F 39 °F (2002)
Degree Days  
Heating Degree Days 1    
Growing Degree Days 14 (Base 50)    
Moisture  
Dew Point 34 °F    
Average Humidity 45    
Maximum Humidity 88    
Minimum Humidity 13    
Precipitation  
Precipitation 0.00 in - - ()
Sea Level Pressure  
Sea Level Pressure 29.84 in    
Wind  
Wind Speed 11 mph ()    
Max Wind Speed 29 mph    
Max Gust Speed 36 mph    
Visibility 9.9 miles    
Events Rain    
Averages and records for this station are not official NWS values.
T = Trace of Precipitation, MM = Missing Value Source: Averaged Metar Reports

Daily Weather History Graph

Daily Weather History Graph

Search for Another Location

Airport or City:

Astronomy

Sep. 21, 2019 Rise Set
Actual Time 6:45 AM MDT 6:57 PM MDT
Civil Twilight 6:18 AM MDT 7:24 PM MDT
Nautical Twilight 5:47 AM MDT 7:56 PM MDT
Astronomical Twilight 5:14 AM MDT 8:28 PM MDT
Moon 11:39 PM MDT (9/21) 1:53 PM MDT (9/21)
Length of Visible Light 13h 06m
Length of Day
12h 12m
Waning Gibbous, 54% of the Moon is Illuminated
Sep 21
Waning Gibbous
Sep 21
Last Quarter
Sep 28
New
Oct 5
First Quarter
Oct 13
Full

Hourly Weather History & Observations

Time (MDT) Temp. Dew Point Humidity Pressure Visibility Wind Dir Wind Speed Gust Speed Precip Events Conditions
12:58 AM 58.5 °F 32.4 °F 37% 29.73 in 10.0 mi ESE 10.4 mph - N/A   Clear
1:58 AM 56.8 °F 30.9 °F 37% 29.73 in 10.0 mi East 9.2 mph - N/A   Clear
2:58 AM 54.3 °F 31.1 °F 41% 29.75 in 10.0 mi ESE 8.1 mph - N/A   Clear
3:58 AM 51.6 °F 31.5 °F 46% 29.76 in 10.0 mi SE 10.4 mph - N/A   Clear
4:58 AM 50.7 °F 33.8 °F 52% 29.79 in 10.0 mi SE 9.2 mph - N/A   Clear
5:58 AM 49.1 °F 33.6 °F 55% 29.82 in 10.0 mi ESE 10.4 mph - N/A   Clear
6:58 AM 51.1 °F 33.1 °F 50% 29.85 in 10.0 mi NNE 3.5 mph - N/A   Partly Cloudy
7:58 AM 57.6 °F 30.7 °F 36% 29.85 in 10.0 mi SSE 12.7 mph - N/A   Partly Cloudy
8:58 AM 63.7 °F 28.2 °F 26% 29.85 in 10.0 mi South 11.5 mph - N/A   Partly Cloudy
9:58 AM 68.9 °F 28.4 °F 22% 29.84 in 10.0 mi South 10.4 mph - N/A   Partly Cloudy
10:58 AM 72.9 °F 28.2 °F 19% 29.81 in 10.0 mi SE 13.8 mph 20.7 mph N/A   Partly Cloudy
11:58 AM 75.2 °F 28.8 °F 18% 29.80 in 10.0 mi ESE 8.1 mph - N/A   Partly Cloudy
12:58 PM 76.5 °F 27.0 °F 16% 29.77 in 10.0 mi ESE 10.4 mph 17.3 mph N/A   Partly Cloudy
1:58 PM 79.7 °F 24.4 °F 13% 29.74 in 10.0 mi SSE 15.0 mph 21.9 mph N/A   Scattered Clouds
2:58 PM 77.4 °F 26.1 °F 15% 29.72 in 10.0 mi SE 11.5 mph 24.2 mph N/A   Scattered Clouds
3:58 PM 76.6 °F 22.1 °F 13% 29.71 in 10.0 mi SSE 8.1 mph 20.7 mph N/A   Mostly Cloudy
4:58 PM 75.9 °F 26.4 °F 16% 29.71 in 10.0 mi WNW 6.9 mph - N/A   Mostly Cloudy
5:58 PM 68.5 °F 32.4 °F 26% 29.76 in 10.0 mi NNW 28.8 mph 34.5 mph N/A   Mostly Cloudy
6:58 PM 66.4 °F 29.5 °F 25% 29.82 in 10.0 mi North 24.2 mph 35.7 mph N/A   Mostly Cloudy
7:58 PM 62.8 °F 35.4 °F 36% 29.87 in 10.0 mi NNE 17.3 mph 34.5 mph N/A   Mostly Cloudy
8:58 PM 56.3 °F 38.8 °F 52% 29.91 in 10.0 mi NE 25.3 mph 33.4 mph N/A   Mostly Cloudy
9:14 PM 55.4 °F 41.0 °F 58% 29.94 in 10.0 mi NNE 19.6 mph 26.5 mph N/A Rain Light Rain
9:23 PM 55.4 °F 41.0 °F 58% 29.95 in 10.0 mi NE 17.3 mph 26.5 mph N/A   Mostly Cloudy
9:47 PM 53.6 °F 42.8 °F 67% 29.96 in 9.0 mi NE 19.6 mph 27.6 mph N/A Rain Light Rain
9:58 PM 51.3 °F 43.9 °F 76% 29.96 in 9.0 mi NE 17.3 mph 25.3 mph 0.00 in Rain Light Rain
10:19 PM 50.0 °F 44.6 °F 82% 29.95 in 10.0 mi NE 13.8 mph - N/A   Mostly Cloudy
10:53 PM 50.0 °F 46.4 °F 87% 29.98 in 9.0 mi West 12.7 mph 18.4 mph N/A Rain Light Rain
10:58 PM 50.5 °F 45.9 °F 84% 29.98 in 9.0 mi WNW 11.5 mph 18.4 mph 0.00 in Rain Light Rain
11:30 PM 50.0 °F 46.4 °F 87% 29.97 in 10.0 mi NW 8.1 mph - N/A   Mostly Cloudy
11:58 PM 50.2 °F 46.8 °F 88% 29.95 in 10.0 mi WNW 3.5 mph - 0.00 in   Mostly Cloudy